Regional Weather Roundup
Issued by NWS

Home | Current Version | Previous Version | Text Only | Print | Product List | Glossary On
Versions: 1 2 3 4 5 6 7 8 9 10 11 12 13 14 15 16 17 18 19 20 21 22 23 24 25 26 27 28 29 30 31 32 33 34 35 36 37 38 39 40 41 42 43 44 45 46 47 48 49 50
000
ASUS44 KJAN 240803
RWRMS

MISSISSIPPI HOURLY WEATHER ROUNDUP
NATIONAL WEATHER SERVICE JACKSON MS
300 AM CDT TUE MAY 24 2016

NOTE: "FAIR: INDICATES FEW OR NO CLOUDS BELOW 12,000 FEET WITH NO
SIGNIFICANT WEATHER AND/OR OBSTRUCTIONS TO VISIBILITY.

MSZ001>002-007>008-010>013-018>021-025>028-034>036-240900-
NORTHWEST MISSISSIPPI

CITY           SKY/WX    TMP DP  RH WIND       PRES   REMARKS
BATESVILLE     FAIR      61  59  94 CALM      30.01S
CLARKSDALE     PTCLDY    70  55  60 CALM      29.99R
CLEVELAND      FAIR      69  58  68 CALM      29.98R
GREENWOOD      PTCLDY    65  57  75 E5        29.98S
GREENVILLE     PTCLDY    65  56  72 S3        29.98R
OLIVE BRANCH   PTCLDY    64  61  88 CALM      30.00S
OXFORD         FAIR      63  55  77 SE7       30.02S
TUNICA         CLOUDY    64  54  68 CALM      30.00R
WINONA         FAIR      60  59  97 CALM      30.00S
$$

MSZ003>006-009-014>017-022>024-029>033-037>039-240900-
NORTHEAST MISSISSIPPI

CITY           SKY/WX    TMP DP  RH WIND       PRES   REMARKS
COLUMBUS AFB   CLOUDY    57  56  94 CALM      30.01R
GOLDN TRIANGLE CLOUDY    63  55  77 CALM      30.01R
STARKVILLE     FAIR      55  55 100 CALM      30.00S
TUPELO         CLEAR     61  56  83 CALM      30.01S
$$

MSZ040-058-240900-
CENTRAL MISSISSIPPI

CITY           SKY/WX    TMP DP  RH WIND       PRES   REMARKS
JACKSON INTL   CLEAR     65  58  78 S6        30.01R
JACKSON HAWKNS CLEAR     66  57  72 CALM      30.01R
MADISON        FAIR      63  57  82 CALM      30.00R
MERIDIAN KEY   CLOUDY    60  57  89 CALM      30.02R
MERIDIAN NAS   PTCLDY    59  54  83 CALM      30.02R
VICKSBURG TVR  PTCLDY    65  58  78 S5        29.99
VICKSBURG VKS  SUNNY     64  59  82 CALM      29.99R
$$

MSZ059>079-240900-
SOUTH MISSISSIPPI

CITY           SKY/WX    TMP DP  RH WIND       PRES   REMARKS
BROOKHAVEN     FAIR     N/A N/A N/A S3        30.01S
COLUMBIA       FAIR      59  57  94 CALM      30.04F
HATTIESBURG    CLEAR     62  58  86 CALM      30.02S
MCCOMB         CLEAR     64  60  87 CALM      29.99F
NATCHEZ        PTCLDY    68  61  77 S6        29.99R
PINE BELT      CLEAR     59  54  82 CALM      30.03S
$$

MSZ080>082-240900-
COASTAL MISSISSIPPI

CITY           SKY/WX    TMP DP  RH WIND       PRES   REMARKS
BILOXI         CLEAR     66  65  95 N1        30.01R
PASCAGOULA     PTCLDY    58  58 100 CALM      30.02R
GULFPORT       CLEAR     64  61  90 CALM      30.01R
$$



USA.gov is the U.S. government's official web portal to all federal, state and local government web resources and services.